Time,TemperatureF,DewpointF,PressureIn,WindDirection,WindDirectionDegrees,WindSpeedMPH,WindSpeedGustMPH,Humidity,HourlyPrecipIn,Conditions,Clouds,dailyrainin,SoftwareType,DateUTC
2013-01-31 07:03:00,11.0,-99.9,-100.00,WNW,296,37.0,49.0,-999,-99.99,,,-99.99,,2013-01-31 14:03:00,
2013-01-31 07:12:00,11.0,-99.9,-100.00,WNW,296,37.0,49.0,-999,-99.99,,,-99.99,,2013-01-31 14:12:00,
2013-01-31 07:22:00,11.0,-99.9,-100.00,WNW,299,38.0,52.0,-999,-99.99,,,-99.99,,2013-01-31 14:22:00,
2013-01-31 07:32:00,11.0,-99.9,-100.00,WNW,299,38.0,52.0,-999,-99.99,,,-99.99,,2013-01-31 14:32:00,
2013-01-31 07:42:00,11.0,-99.9,-100.00,WNW,299,38.0,52.0,-999,-99.99,,,-99.99,,2013-01-31 14:42:00,
2013-01-31 07:52:00,11.0,-99.9,-100.00,WNW,300,36.0,48.0,-999,-99.99,,,-99.99,,2013-01-31 14:52:00,
2013-01-31 08:03:00,11.0,-99.9,-100.00,WNW,303,34.0,46.0,-999,-99.99,,,-99.99,,2013-01-31 15:03:00,
2013-01-31 08:12:00,11.0,-99.9,-100.00,WNW,303,34.0,46.0,-999,-99.99,,,-99.99,,2013-01-31 15:12:00,
2013-01-31 08:23:00,11.0,-99.9,-100.00,NW,307,31.0,43.0,-999,-99.99,,,-99.99,,2013-01-31 15:23:00,
2013-01-31 08:32:00,11.0,-99.9,-100.00,NW,317,27.0,40.0,-999,-99.99,,,-99.99,,2013-01-31 15:32:00,
2013-01-31 08:42:00,11.0,-99.9,-100.00,NW,317,27.0,40.0,-999,-99.99,,,-99.99,,2013-01-31 15:42:00,
2013-01-31 08:52:00,11.0,-99.9,-100.00,NW,322,18.0,31.0,-999,-99.99,,,-99.99,,2013-01-31 15:52:00,
2013-01-31 09:04:00,11.0,-99.9,-100.00,NNW,329,14.0,25.0,-999,-99.99,,,-99.99,,2013-01-31 16:04:00,
2013-01-31 09:13:00,11.0,-99.9,-100.00,NNW,329,14.0,25.0,-999,-99.99,,,-99.99,,2013-01-31 16:13:00,
2013-01-31 09:22:00,11.0,-99.9,-100.00,NW,313,16.0,29.0,-999,-99.99,,,-99.99,,2013-01-31 16:22:00,
2013-01-31 09:33:00,11.0,-99.9,-100.00,NW,325,11.0,21.0,-999,-99.99,,,-99.99,,2013-01-31 16:33:00,
2013-01-31 09:42:00,11.0,-99.9,-100.00,NW,325,11.0,21.0,-999,-99.99,,,-99.99,,2013-01-31 16:42:00,
2013-01-31 09:52:00,12.0,-99.9,-100.00,NW,305,13.0,24.0,-999,-99.99,,,-99.99,,2013-01-31 16:52:00,
2013-01-31 10:03:00,12.0,-99.9,-100.00,NNW,332,9.0,19.0,-999,-99.99,,,-99.99,,2013-01-31 17:03:00,
2013-01-31 10:13:00,12.0,-99.9,-100.00,NNW,332,9.0,19.0,-999,-99.99,,,-99.99,,2013-01-31 17:13:00,
2013-01-31 10:23:00,13.0,-99.9,-100.00,NNW,341,10.0,21.0,-999,-99.99,,,-99.99,,2013-01-31 17:23:00,
2013-01-31 10:32:00,13.0,-99.9,-100.00,North,351,8.0,18.0,-999,-99.99,,,-99.99,,2013-01-31 17:32:00,
2013-01-31 10:44:00,13.0,-99.9,-100.00,North,351,8.0,18.0,-999,-99.99,,,-99.99,,2013-01-31 17:44:00,
2013-01-31 10:54:00,13.0,-99.9,-100.00,North,350,10.0,21.0,-999,-99.99,,,-99.99,,2013-01-31 17:54:00,
2013-01-31 11:03:00,13.0,-99.9,-100.00,North,9,8.0,18.0,-999,-99.99,,,-99.99,,2013-01-31 18:03:00,
2013-01-31 11:13:00,13.0,-99.9,-100.00,North,9,8.0,18.0,-999,-99.99,,,-99.99,,2013-01-31 18:13:00,
2013-01-31 11:22:00,14.0,-99.9,-100.00,North,7,7.0,14.0,-999,-99.99,,,-99.99,,2013-01-31 18:22:00,
2013-01-31 11:32:00,14.0,-99.9,-100.00,NNW,335,9.0,18.0,-999,-99.99,,,-99.99,,2013-01-31 18:32:00,
2013-01-31 11:43:00,14.0,-99.9,-100.00,NNW,335,9.0,18.0,-999,-99.99,,,-99.99,,2013-01-31 18:43:00,
2013-01-31 11:52:00,14.0,-99.9,-100.00,NNW,330,14.0,22.0,-999,-99.99,,,-99.99,,2013-01-31 18:52:00,
2013-01-31 12:03:00,14.0,-99.9,-100.00,NNW,343,14.0,22.0,-999,-99.99,,,-99.99,,2013-01-31 19:03:00,
2013-01-31 12:13:00,14.0,-99.9,-100.00,NNW,343,14.0,22.0,-999,-99.99,,,-99.99,,2013-01-31 19:13:00,
2013-01-31 12:22:00,14.0,-99.9,-100.00,NNW,335,12.0,21.0,-999,-99.99,,,-99.99,,2013-01-31 19:22:00,
2013-01-31 12:33:00,14.0,-99.9,-100.00,NNW,347,10.0,18.0,-999,-99.99,,,-99.99,,2013-01-31 19:33:00,
2013-01-31 12:43:00,14.0,-99.9,-100.00,NNW,347,10.0,18.0,-999,-99.99,,,-99.99,,2013-01-31 19:43:00,
2013-01-31 12:53:00,15.0,-99.9,-100.00,North,351,11.0,19.0,-999,-99.99,,,-99.99,,2013-01-31 19:53:00,
2013-01-31 13:03:00,14.0,-99.9,-100.00,NW,320,16.0,28.0,-999,-99.99,,,-99.99,,2013-01-31 20:03:00,
2013-01-31 13:12:00,14.0,-99.9,-100.00,NW,320,16.0,28.0,-999,-99.99,,,-99.99,,2013-01-31 20:12:00,
2013-01-31 13:22:00,14.0,-99.9,-100.00,WNW,301,16.0,28.0,-999,-99.99,,,-99.99,,2013-01-31 20:22:00,
2013-01-31 13:32:00,14.0,-99.9,-100.00,WNW,301,16.0,28.0,-999,-99.99,,,-99.99,,2013-01-31 20:32:00,
2013-01-31 13:42:00,14.0,-99.9,-100.00,WNW,301,16.0,28.0,-999,-99.99,,,-99.99,,2013-01-31 20:42:00,
2013-01-31 13:53:00,15.0,-99.9,-100.00,NW,309,15.0,24.0,-999,-99.99,,,-99.99,,2013-01-31 20:53:00,
2013-01-31 14:02:00,15.0,-99.9,-100.00,NW,317,12.0,21.0,-999,-99.99,,,-99.99,,2013-01-31 21:02:00,
2013-01-31 14:13:00,15.0,-99.9,-100.00,NW,317,12.0,21.0,-999,-99.99,,,-99.99,,2013-01-31 21:13:00,
2013-01-31 14:22:00,15.0,-99.9,-100.00,NW,315,14.0,26.0,-999,-99.99,,,-99.99,,2013-01-31 21:22:00,
2013-01-31 14:32:00,14.0,-99.9,-100.00,WNW,303,17.0,28.0,-999,-99.99,,,-99.99,,2013-01-31 21:32:00,
2013-01-31 14:42:00,14.0,-99.9,-100.00,WNW,303,17.0,28.0,-999,-99.99,,,-99.99,,2013-01-31 21:42:00,
2013-01-31 14:52:00,14.0,-99.9,-100.00,WNW,301,15.0,24.0,-999,-99.99,,,-99.99,,2013-01-31 21:52:00,
2013-01-31 15:03:00,14.0,-99.9,-100.00,NW,324,13.0,24.0,-999,-99.99,,,-99.99,,2013-01-31 22:03:00,
2013-01-31 15:11:00,14.0,-99.9,-100.00,NW,324,13.0,24.0,-999,-99.99,,,-99.99,,2013-01-31 22:11:00,
2013-01-31 15:22:00,14.0,-99.9,-100.00,NW,310,13.0,24.0,-999,-99.99,,,-99.99,,2013-01-31 22:22:00,
2013-01-31 15:33:00,14.0,-99.9,-100.00,NNW,348,9.0,16.0,-999,-99.99,,,-99.99,,2013-01-31 22:33:00,
2013-01-31 15:43:00,14.0,-99.9,-100.00,NNW,348,9.0,16.0,-999,-99.99,,,-99.99,,2013-01-31 22:43:00,
2013-01-31 15:52:00,14.0,-99.9,-100.00,NNW,334,10.0,21.0,-999,-99.99,,,-99.99,,2013-01-31 22:52:00,
2013-01-31 16:03:00,14.0,-99.9,-100.00,NW,315,13.0,28.0,-999,-99.99,,,-99.99,,2013-01-31 23:03:00,
2013-01-31 16:12:00,14.0,-99.9,-100.00,NW,315,13.0,28.0,-999,-99.99,,,-99.99,,2013-01-31 23:12:00,
2013-01-31 16:22:00,14.0,-99.9,-100.00,WNW,298,14.0,22.0,-999,-99.99,,,-99.99,,2013-01-31 23:22:00,
2013-01-31 16:32:00,14.0,-99.9,-100.00,WNW,298,14.0,22.0,-999,-99.99,,,-99.99,,2013-01-31 23:32:00,
2013-01-31 16:43:00,14.0,-99.9,-100.00,WNW,298,14.0,22.0,-999,-99.99,,,-99.99,,2013-01-31 23:43:00,
2013-01-31 16:52:00,14.0,-99.9,-100.00,NW,320,13.0,24.0,-999,-99.99,,,-99.99,,2013-01-31 23:52:00,
2013-01-31 17:02:00,13.0,-99.9,-100.00,NW,312,14.0,24.0,-999,-99.99,,,-99.99,,2013-02-01 00:02:00,
2013-01-31 17:12:00,13.0,-99.9,-100.00,NW,312,14.0,24.0,-999,-99.99,,,-99.99,,2013-02-01 00:12:00,
2013-01-31 17:22:00,13.0,-99.9,-100.00,NW,317,12.0,19.0,-999,-99.99,,,-99.99,,2013-02-01 00:22:00,
2013-01-31 17:32:00,13.0,-99.9,-100.00,WNW,302,15.0,24.0,-999,-99.99,,,-99.99,,2013-02-01 00:32:00,
2013-01-31 17:42:00,13.0,-99.9,-100.00,WNW,302,15.0,24.0,-999,-99.99,,,-99.99,,2013-02-01 00:42:00,
2013-01-31 17:52:00,13.0,-99.9,-100.00,West,279,16.0,22.0,-999,-99.99,,,-99.99,,2013-02-01 00:52:00,
2013-01-31 18:01:00,13.0,-99.9,-100.00,West,279,12.0,18.0,-999,-99.99,,,-99.99,,2013-02-01 01:01:00,
2013-01-31 18:12:00,13.0,-99.9,-100.00,West,279,12.0,18.0,-999,-99.99,,,-99.99,,2013-02-01 01:12:00,
2013-01-31 18:22:00,13.0,-99.9,-100.00,NW,320,9.0,16.0,-999,-99.99,,,-99.99,,2013-02-01 01:22:00,
2013-01-31 18:32:00,13.0,-99.9,-100.00,NW,318,9.0,15.0,-999,-99.99,,,-99.99,,2013-02-01 01:32:00,
2013-01-31 18:42:00,13.0,-99.9,-100.00,NW,318,9.0,15.0,-999,-99.99,,,-99.99,,2013-02-01 01:42:00,
2013-01-31 18:52:00,13.0,-99.9,-100.00,WNW,302,13.0,21.0,-999,-99.99,,,-99.99,,2013-02-01 01:52:00,
2013-01-31 19:02:00,13.0,-99.9,-100.00,NW,316,12.0,19.0,-999,-99.99,,,-99.99,,2013-02-01 02:02:00,
2013-01-31 19:12:00,13.0,-99.9,-100.00,NW,316,12.0,19.0,-999,-99.99,,,-99.99,,2013-02-01 02:12:00,
2013-01-31 19:22:00,13.0,-99.9,-100.00,NNW,329,13.0,22.0,-999,-99.99,,,-99.99,,2013-02-01 02:22:00,
2013-01-31 19:32:00,13.0,-99.9,-100.00,NW,322,15.0,26.0,-999,-99.99,,,-99.99,,2013-02-01 02:32:00,
2013-01-31 19:42:00,13.0,-99.9,-100.00,NW,322,15.0,26.0,-999,-99.99,,,-99.99,,2013-02-01 02:42:00,
2013-01-31 19:52:00,12.0,-99.9,-100.00,NW,314,17.0,32.0,-999,-99.99,,,-99.99,,2013-02-01 02:52:00,
2013-01-31 20:02:00,12.0,-99.9,-100.00,WNW,300,19.0,28.0,-999,-99.99,,,-99.99,,2013-02-01 03:02:00,
2013-01-31 20:12:00,12.0,-99.9,-100.00,WNW,300,19.0,28.0,-999,-99.99,,,-99.99,,2013-02-01 03:12:00,
2013-01-31 20:22:00,12.0,-99.9,-100.00,WNW,298,20.0,26.0,-999,-99.99,,,-99.99,,2013-02-01 03:22:00,
2013-01-31 20:33:00,13.0,-99.9,-100.00,NW,311,15.0,25.0,-999,-99.99,,,-99.99,,2013-02-01 03:33:00,
2013-01-31 20:42:00,13.0,-99.9,-100.00,NW,311,15.0,25.0,-999,-99.99,,,-99.99,,2013-02-01 03:42:00,
2013-01-31 20:52:00,13.0,-99.9,-100.00,NNW,327,13.0,21.0,-999,-99.99,,,-99.99,,2013-02-01 03:52:00,
2013-01-31 21:02:00,13.0,-99.9,-100.00,NW,320,15.0,25.0,-999,-99.99,,,-99.99,,2013-02-01 04:02:00,
2013-01-31 21:11:00,13.0,-99.9,-100.00,NW,320,15.0,25.0,-999,-99.99,,,-99.99,,2013-02-01 04:11:00,
2013-01-31 21:22:00,13.0,-99.9,-100.00,NW,315,14.0,22.0,-999,-99.99,,,-99.99,,2013-02-01 04:22:00,
2013-01-31 21:32:00,13.0,-99.9,-100.00,NW,317,14.0,24.0,-999,-99.99,,,-99.99,,2013-02-01 04:32:00,
2013-01-31 21:42:00,13.0,-99.9,-100.00,NW,317,14.0,24.0,-999,-99.99,,,-99.99,,2013-02-01 04:42:00,
2013-01-31 21:52:00,14.0,-99.9,-100.00,NW,316,16.0,26.0,-999,-99.99,,,-99.99,,2013-02-01 04:52:00,
2013-01-31 22:04:00,14.0,-99.9,-100.00,NW,313,15.0,24.0,-999,-99.99,,,-99.99,,2013-02-01 05:04:00,
2013-01-31 22:12:00,14.0,-99.9,-100.00,NW,313,15.0,24.0,-999,-99.99,,,-99.99,,2013-02-01 05:12:00,
2013-01-31 22:23:00,14.0,-99.9,-100.00,NW,318,15.0,24.0,-999,-99.99,,,-99.99,,2013-02-01 05:23:00,
2013-01-31 22:32:00,14.0,-99.9,-100.00,NW,320,14.0,24.0,-999,-99.99,,,-99.99,,2013-02-01 05:32:00,
2013-01-31 22:42:00,14.0,-99.9,-100.00,NW,320,14.0,24.0,-999,-99.99,,,-99.99,,2013-02-01 05:42:00,
2013-01-31 22:52:00,14.0,-99.9,-100.00,NW,306,17.0,26.0,-999,-99.99,,,-99.99,,2013-02-01 05:52:00,
2013-01-31 23:02:00,15.0,-99.9,-100.00,NW,310,17.0,29.0,-999,-99.99,,,-99.99,,2013-02-01 06:02:00,
2013-01-31 23:12:00,15.0,-99.9,-100.00,NW,310,17.0,29.0,-999,-99.99,,,-99.99,,2013-02-01 06:12:00,
2013-01-31 23:22:00,15.0,-99.9,-100.00,NW,304,19.0,31.0,-999,-99.99,,,-99.99,,2013-02-01 06:22:00,
2013-01-31 23:32:00,15.0,-99.9,-100.00,NW,304,17.0,29.0,-999,-99.99,,,-99.99,,2013-02-01 06:32:00,
2013-01-31 23:42:00,15.0,-99.9,-100.00,NW,304,17.0,29.0,-999,-99.99,,,-99.99,,2013-02-01 06:42:00,
2013-01-31 23:52:00,15.0,-99.9,-100.00,NW,312,18.0,32.0,-999,-99.99,,,-99.99,,2013-02-01 06:52:00,